KI5IZM-13 Weather Reports


Display with metric or nautical units.
time (UTC)temp
F
wind
direction
speed
MPH
gust
MPH
rain 1hr
in
rain 24hr
in
rain mn
in
humidity
%
barometer
mb
20260505011511 75 132 0.0 5.0 0.00 0.00 0.00 63 1008.9
20260505010014 76 216 0.0 10.0 0.00 0.00 0.00 62 1009.1
20260505004531 76 148 0.0 6.0 0.00 0.00 0.00 60 1008.9
20260505003016 77 178 1.0 7.0 0.00 0.00 0.00 59 1008.9
20260505001518 77 135 1.0 8.0 0.00 0.00 0.00 57 1008.9
20260505000023 78 22 3.0 10.0 0.00 0.00 0.00 56 1009.2
20260504234516 78 283 1.0 11.0 0.00 0.00 0.00 55 1009.5
20260504233017 79 102 4.0 12.0 0.00 0.00 0.00 54 1009.7
20260504231519 79 19 2.0 15.0 0.00 0.00 0.00 54 1009.6
20260504230024 79 203 2.0 16.0 0.00 0.00 0.00 54 1009.7
20260504224515 79 133 3.0 12.0 0.00 0.00 0.00 53 1009.9
20260504223018 79 157 1.0 14.0 0.00 0.00 0.00 52 1010.0
20260504221523 80 138 5.0 12.0 0.00 0.00 0.00 51 1010.1
20260504220024 81 160 4.0 14.0 0.00 0.00 0.00 49 1010.2
20260504214524 80 262 3.0 13.0 0.00 0.00 0.00 49 1010.7
20260504213040 80 189 4.0 12.0 0.00 0.00 0.00 49 1010.9
20260504211521 80 120 6.0 14.0 0.00 0.00 0.00 47 1011.2
20260504210027 79 138 4.0 14.0 0.00 0.00 0.00 48 1011.6
20260504204527 80 219 2.0 11.0 0.00 0.00 0.00 47 1012.0
20260504203024 80 140 5.0 15.0 0.00 0.00 0.00 47 1012.2
20260504201532 80 132 6.0 13.0 0.00 0.00 0.00 47 1012.3
20260504200022 79 144 5.0 13.0 0.00 0.00 0.00 47 1012.7
20260504194526 79 144 6.0 14.0 0.00 0.00 0.00 46 1012.8
20260504193011 79 158 4.0 15.0 0.00 0.00 0.00 48 1012.9
20260504191519 78 121 4.0 17.0 0.00 0.00 0.00 48 1013.2
20260504190003 78 130 4.0 11.0 0.00 0.00 0.00 49 1013.5
20260504184508 79 155 4.0 14.0 0.00 0.00 0.00 48 1013.6
20260504183007 78 255 2.0 11.0 0.00 0.00 0.00 50 1013.8
20260504181511 77 250 2.0 13.0 0.00 0.00 0.00 49 1014.0
20260504180018 77 244 1.0 13.0 0.00 0.00 0.00 50 1014.2
20260504174505 76 99 5.0 10.0 0.00 0.00 0.00 50 1014.3
20260504173013 76 319 4.0 10.0 0.00 0.00 0.00 50 1014.9
20260504171518 76 261 4.0 12.0 0.00 0.00 0.00 49 1015.0
20260504081508 61 205 0.0 5.0 0.00 0.00 0.00 73 1016.1
20260504044521 58 223 0.0 0.0 0.00 0.00 0.00 81 1017.7
20260504043019 59 223 0.0 1.0 0.00 0.00 0.00 80 1017.7
20260504041517 59 169 0.0 0.0 0.00 0.00 0.00 79 1017.8
20260504040022 60 169 0.0 0.0 0.00 0.00 0.00 77 1017.8
20260504034533 61 169 0.0 0.0 0.00 0.00 0.00 77 1017.9
20260504033011 61 169 0.0 0.0 0.00 0.00 0.00 76 1017.9
20260504031516 62 169 0.0 0.0 0.00 0.00 0.00 76 1018.0
20260504030020 62 169 0.0 0.0 0.00 0.00 0.00 75 1017.9
20260504024525 63 169 0.0 0.0 0.00 0.00 0.00 73 1017.8
20260504023026 64 169 0.0 0.0 0.00 0.00 0.00 71 1017.8
20260504021510 65 169 0.0 0.0 0.00 0.00 0.00 70 1017.6
20260504020017 66 169 0.0 0.0 0.00 0.00 0.00 66 1017.8
20260504014523 67 169 0.0 0.0 0.00 0.00 0.00 64 1017.7
20260504013010 69 169 0.0 7.0 0.00 0.00 0.00 62 1017.6